Temperature
23 20 21 21 21 23 23 23 23 24 24 22 21 21 21 21 21 20 20 19 19 20 20 21 22 22 22 21 21 20 20 20 19 19 19 19 19 18 18 18 17 17 17 17
20 21 22 22 22 22 23 23 23 24 23 23 22 21 21 20 20 20 19 18 19 20 21 22 22 22 22 22 21 21 21 20 20 20 19 19 18 18 18 17 17 16 16 16
22 23 24 24 24 23 23 23 24 24 23 21 22 21 20 20 19 19 19 19 19 21 22 22 22 22 22 22 22 22 21 21 20 20 19 19 18 18 17 17 16 16 16 16
23 23 25 25 25 24 23 24 23 23 21 20 21 19 20 19 18 18 18 19 20 21 22 22 22 22 22 22 22 21 21 20 20 19 19 18 18 17 17 16 16 15 15 15
23 24 25 25 25 25 24 22 22 21 20 19 19 19 18 18 18 18 18 19 20 21 22 22 23 23 22 22 21 21 21 20 20 19 19 18 18 17 16 16 15 15 15 15
23 24 24 24 24 24 23 20 18 16 16 18 20 18 18 17 18 18 18 19 21 22 22 23 23 22 22 21 21 21 20 20 20 19 18 18 17 16 16 15 15 15 15 15
22 22 23 24 24 23 21 19 17 17 16 17 18 18 17 18 18 18 19 20 22 22 22 23 23 22 22 21 21 21 20 20 19 19 18 17 16 16 15 15 15 14 14 14
21 20 23 24 24 22 21 19 18 18 17 16 17 17 18 19 20 20 21 21 21 21 21 22 22 22 22 21 21 21 20 20 20 19 18 17 16 15 15 15 14 14 14 13
20 21 22 23 23 22 20 19 17 16 16 16 16 17 18 20 20 20 20 20 20 20 20 21 21 21 21 22 22 21 21 20 20 19 18 17 16 15 15 14 14 14 13 13
21 21 21 21 22 21 20 17 15 16 17 16 17 18 18 18 18 17 17 17 18 18 19 19 20 21 21 21 21 21 20 20 19 18 18 17 16 15 15 14 14 14 13 13
21 20 20 20 21 20 20 19 15 14 15 15 16 16 16 15 14 14 14 14 14 15 16 17 18 19 19 20 20 19 19 19 18 18 17 16 16 15 15 15 14 14 13 13
18 17 17 18 19 19 20 19 16 17 16 14 14 15 15 13 12 13 12 12 13 13 14 15 16 16 17 17 18 18 18 18 17 17 17 16 16 15 15 15 14 14 13 13
17 17 17 18 18 19 19 19 17 14 14 13 13 15 14 12 12 12 11 11 11 11 12 13 13 14 14 15 15 16 16 17 17 17 16 16 16 16 15 15 14 14 13 13
17 16 17 18 18 18 19 19 18 14 14 13 14 15 13 11 10 10 10 10 10 10 10 11 11 12 12 13 13 14 15 15 16 16 16 16 16 15 15 15 14 13 13 13
17 17 17 16 17 18 18 18 17 16 15 14 14 12 10 10 9 9 9 9 9 9 9 9 10 10 11 12 12 12 13 13 14 14 15 15 15 15 15 14 14 13 13 12
16 17 17 18 18 18 18 17 16 14 13 13 12 9 9 9 9 8 8 8 8 8 8 8 9 9 9 10 10 11 11 12 12 12 13 14 14 15 15 14 14 13 13 12
15 15 16 16 17 18 16 14 14 10 9 9 9 8 8 8 8 8 7 7 7 7 7 8 8 8 8 9 9 10 10 10 11 11 12 12 12 13 14 14 13 13 12 12
13 14 13 14 17 18 13 12 11 9 9 9 9 8 8 7 7 7 8 8 8 9 9 9 9 9 9 9 9 9 9 10 10 10 11 11 11 11 12 13 13 12 12 12
13 14 13 13 16 16 13 13 12 12 9 8 8 9 9 9 8 8 10 10 10 9 9 9 10 10 10 10 9 9 9 9 9 10 10 10 10 11 11 11 12 12 11 11
12 12 13 14 16 15 11 11 12 12 9 8 8 8 9 8 7 8 10 10 9 10 10 10 10 10 10 10 10 9 9 9 9 9 9 9 9 10 10 10 10 11 11 11
13 12 12 13 14 11 9 10 11 10 8 9 9 9 9 8 8 9 9 9 9 10 10 10 10 9 9 9 9 9 9 9 9 9 9 9 9 9 9 9 9 10 10 10
11 11 11 11 12 10 9 9 9 9 10 10 10 9 9 9 8 8 8 9 9 9 9 9 9 9 9 9 9 9 9 9 9 9 8 9 9 8 8 9 9 9 9 9
8 9 9 8 9 9 10 10 11 11 10 10 9 9 8 8 8 8 8 8 8 8 8 8 8 8 8 8 8 8 8 9 8 8 8 8 8 8 8 8 8 8 8 8
8 8 7 7 8 10 10 10 11 10 9 9 9 8 8 8 8 8 7 7 7 7 7 7 6 6 6 6 7 7 7 8 8 8 8 8 8 8 8 8 7 7 7 8
8 7 7 7 8 9 10 10 10 9 9 9 8 8 8 7 7 7 6 6 6 6 6 6 5 5 5 5 6 6 6 6 7 7 7 8 8 8 7 7 7 7 7 7
8 8 7 7 9 8 9 10 9 9 8 8 8 7 7 7 6 6 6 5 5 5 5 5 5 5 5 5 5 5 5 5 5 6 6 7 8 8 7 7 7 7 6 7
Wind_Speed
3 3 3 6 6 4 2 2 3 4 5 5 6 4 2 2 4 7 7 6 6 5 3 2 4 5 5 5 6 6 6 5 4 2 2 2 3 3 3 3 4 5 6 7
5 4 7 5 4 3 3 2 1 3 5 3 3 3 4 3 3 4 7 8 8 6 4 5 5 5 5 5 6 6 6 5 5 3 2 2 2 2 3 3 4 5 6 6
2 6 5 1 3 5 2 3 2 2 4 5 2 4 4 4 3 3 7 7 8 9 9 8 7 7 6 7 8 6 7 6 4 3 1 0 1 2 2 3 3 3 5 6
4 5 3 2 1 3 2 4 2 1 2 4 4 4 5 3 2 3 6 7 8 9 9 9 9 9 9 9 6 6 5 4 3 3 3 3 2 3 3 2 4 6 6 6
5 4 3 2 3 1 4 3 3 1 2 1 3 1 8 3 4 6 7 8 10 11 11 11 11 10 8 5 4 4 3 3 3 3 4 4 4 3 2 3 5 6 7 8
5 4 2 2 2 3 4 6 6 6 5 1 0 2 7 5 7 6 8 10 12 12 11 10 8 5 5 4 4 4 4 5 4 5 5 6 6 4 3 4 5 5 6 7
8 8 5 1 1 3 6 7 6 7 6 4 4 3 9 8 8 8 10 13 13 10 8 8 8 7 7 7 6 6 6 6 5 5 6 6 6 5 4 4 4 5 5 6
2 7 6 2 2 4 3 8 6 3 5 6 5 5 8 7 6 7 8 7 5 5 5 7 8 8 9 9 8 7 8 7 6 6 6 5 6 4 4 5 4 5 5 7
5 6 6 4 3 4 4 3 6 6 2 3 6 7 9 6 6 4 2 1 3 4 5 7 8 8 8 8 7 7 8 7 7 7 6 6 6 6 6 5 5 5 5 6
7 5 6 7 5 5 3 8 6 5 3 4 6 5 5 8 10 9 4 3 6 8 9 10 9 9 8 6 5 4 4 5 5 6 7 6 8 8 7 5 6 5 5 5
3 3 6 7 5 4 3 4 5 4 4 5 5 7 3 7 8 5 7 9 10 11 11 12 12 12 11 10 8 6 5 5 5 6 7 8 8 8 7 6 7 5 5 5
4 4 3 7 6 2 2 4 6 1 4 5 4 8 4 6 8 9 10 10 10 11 12 12 13 14 14 13 11 10 8 7 7 6 7 9 9 8 8 8 8 6 5 5
6 5 4 9 7 5 2 2 5 4 3 5 5 6 4 9 11 12 12 13 13 14 15 15 15 15 14 13 12 11 10 9 8 7 8 9 9 10 10 10 8 6 5 4
6 5 6 7 9 5 6 7 3 5 4 5 8 4 6 10 12 13 14 13 13 14 15 15 15 14 13 12 11 12 11 9 9 8 8 10 11 11 11 9 8 7 5 4
5 4 7 8 7 3 5 9 9 3 5 6 3 5 9 10 9 10 13 15 18 19 19 18 17 15 15 14 13 12 12 11 10 10 9 10 11 10 10 9 9 7 6 5
3 3 2 4 4 3 3 7 6 6 6 5 7 8 11 9 9 11 14 18 19 19 20 20 19 19 19 18 17 15 13 12 11 10 10 10 9 9 10 10 9 8 7 6
1 4 3 4 5 3 5 10 6 7 7 7 5 5 9 12 14 14 14 15 16 17 17 17 17 17 17 16 15 13 13 12 10 9 9 10 10 9 9 9 9 10 9 7
5 4 2 2 4 2 3 4 8 9 7 6 4 5 8 11 13 12 11 12 14 15 15 15 15 16 15 16 15 13 12 11 10 9 8 8 8 10 9 7 9 10 8 8
3 5 4 3 2 1 4 6 8 3 3 4 6 10 11 12 10 9 13 16 16 16 15 15 15 15 14 16 15 13 13 11 10 10 9 8 7 8 9 8 9 8 8 8
7 5 5 3 2 2 5 12 15 3 1 3 7 13 16 13 12 10 10 12 14 16 16 16 15 14 14 15 12 11 13 12 12 12 10 8 7 7 7 8 8 7 8 9
7 7 5 3 1 4 6 12 9 5 8 13 14 16 17 13 17 17 16 16 18 19 19 18 16 15 14 14 11 12 13 14 14 12 11 10 9 8 7 6 6 7 9 9
4 5 6 5 4 3 6 6 3 7 11 14 16 17 18 19 20 20 19 18 17 18 18 17 15 17 16 14 12 14 15 15 13 12 12 12 10 9 6 5 5 6 7 9
5 2 1 2 2 6 5 6 10 11 13 14 15 17 18 19 21 20 19 18 18 19 19 16 16 18 17 14 13 15 17 15 13 12 13 13 11 9 7 6 5 5 5 7
5 3 3 1 4 7 10 11 11 12 13 14 15 17 17 19 21 22 20 18 16 18 18 17 17 18 18 16 15 15 15 13 12 13 13 12 10 9 8 6 5 4 4 6
3 2 2 3 7 9 9 10 12 12 12 14 15 17 16 20 23 23 22 21 20 19 18 17 18 19 20 18 17 16 13 11 12 13 13 12 11 10 8 7 7 6 4 4
1 2 2 5 9 7 11 11 12 12 13 15 18 18 15 17 21 23 21 20 20 20 19 20 20 21 21 19 17 15 13 11 11 11 11 10 9 8 8 7 7 9 8 9
Wind_Direction
25 55 264 240 208 210 226 221 253 284 329 50 56 59 43 19 166 169 156 129 124 124 132 154 155 149 140 147 158 169 179 184 169 165 188 213 246 257 267 266 273 288 294 296
17 312 259 234 208 187 179 153 261 296 349 66 66 17 337 351 259 203 161 153 155 154 178 197 192 191 189 187 190 196 202 203 199 187 187 198 227 266 285 300 306 305 306 304
255 268 300 120 106 110 139 168 209 280 347 27 69 349 316 328 5 115 146 160 173 181 190 204 208 215 215 216 213 209 215 218 218 205 164 52 358 334 321 319 315 313 313 305
291 282 320 45 83 131 233 234 225 205 50 316 26 293 276 289 312 169 167 178 195 203 209 214 215 219 222 227 229 231 233 236 233 196 196 207 227 261 267 284 293 307 313 313
298 312 344 340 309 214 203 68 63 49 161 33 30 186 286 302 255 225 205 205 215 218 216 219 220 222 230 240 246 245 246 256 247 213 203 204 218 228 257 278 296 306 314 314
271 303 277 265 6 33 98 68 50 46 64 78 231 195 280 251 227 226 219 221 224 227 227 234 241 248 265 262 246 231 225 240 228 208 198 196 206 217 251 286 302 309 312 308
335 331 323 265 10 19 70 70 18 358 5 265 278 235 253 258 239 219 213 223 231 235 242 258 271 274 271 264 246 225 217 231 222 206 201 198 197 198 222 258 285 303 310 310
328 308 298 312 232 228 170 134 154 220 246 282 315 247 258 259 267 238 228 236 256 281 290 290 285 277 269 259 241 219 217 226 217 209 208 200 194 197 218 236 253 275 288 296
197 264 303 336 310 168 141 153 159 141 187 273 288 290 302 313 314 308 274 315 350 347 334 316 308 297 284 275 252 221 216 224 219 213 208 207 206 210 223 236 246 262 276 294
171 249 303 317 14 37 118 137 99 124 177 257 286 282 264 309 309 313 335 40 36 25 14 2 353 346 339 330 319 306 271 250 234 220 215 216 217 218 223 232 248 261 279 296
110 176 305 344 9 339 17 74 90 112 159 181 253 266 263 290 305 338 35 48 40 31 21 15 11 8 6 3 356 341 324 300 276 248 232 228 229 225 225 233 247 257 276 298
102 119 291 292 282 291 221 147 143 133 269 197 217 265 347 19 30 55 54 43 33 27 19 15 11 9 9 6 359 350 336 313 285 263 247 240 236 229 230 236 243 248 266 288
137 104 10 340 341 346 28 166 153 134 159 190 199 262 59 47 47 42 40 30 23 19 15 11 8 6 1 356 352 348 343 330 311 284 258 250 242 232 234 237 238 239 250 276
116 128 176 223 236 255 293 291 255 149 202 236 228 244 36 33 38 34 29 21 16 12 8 3 357 352 347 344 342 339 336 331 325 307 276 260 251 240 236 234 231 231 233 248
109 198 230 245 255 270 274 295 311 266 223 232 309 54 14 20 32 27 19 11 6 1 356 351 345 341 336 334 333 331 331 332 331 323 302 279 266 252 241 234 229 224 223 225
92 204 214 285 282 273 299 345 1 29 16 15 67 44 357 1 6 4 2 359 354 348 342 337 334 330 326 324 323 321 321 325 332 334 330 319 297 267 248 238 226 217 215 211
106 139 131 276 305 358 21 359 37 60 39 35 51 8 349 351 347 338 334 335 330 325 320 315 313 308 305 303 302 301 303 309 317 323 330 336 331 308 274 249 230 218 209 199
120 106 123 302 3 21 129 75 94 105 77 59 49 344 331 311 298 284 275 275 279 281 284 287 289 290 292 293 293 290 289 293 298 303 312 322 331 329 313 273 243 227 205 196
111 125 93 71 349 118 108 15 354 319 95 23 331 314 304 290 283 266 252 247 252 264 274 280 282 284 286 289 290 290 285 281 284 286 291 300 312 323 327 308 270 237 211 199
45 66 89 66 323 302 358 327 322 262 150 293 293 292 296 305 302 292 266 263 270 281 286 286 285 284 282 282 283 283 280 277 276 275 274 277 284 297 310 315 298 251 219 208
7 11 39 22 321 64 332 326 4 38 299 293 285 283 288 281 277 286 288 286 285 286 286 287 286 284 279 279 277 276 274 268 267 269 270 270 267 271 280 302 307 272 234 205
34 17 14 11 13 349 323 11 36 265 261 272 281 285 288 288 288 290 291 289 287 287 284 282 281 280 280 277 272 272 270 266 266 267 266 263 259 260 270 282 304 291 243 208
50 24 77 102 218 239 255 241 246 258 272 280 286 293 296 298 298 296 293 291 291 289 288 283 279 279 279 275 266 264 267 266 266 266 265 261 256 250 251 255 277 297 260 220
5 13 96 128 262 265 266 263 268 276 282 291 297 301 303 300 300 299 297 295 291 289 287 285 283 281 280 276 269 260 261 261 258 260 263 261 252 248 245 243 239 254 273 230
338 40 60 282 272 286 280 274 284 297 301 300 298 298 296 295 298 297 298 296 294 293 290 286 284 283 281 278 270 265 260 252 253 257 259 258 246 238 239 238 232 227 248 252
251 164 181 256 258 264 281 287 296 299 296 295 298 300 296 294 297 299 298 297 296 294 292 290 287 285 283 279 272 264 259 249 245 252 255 252 243 233 230 238 248 232 240 261
Height
1503 1508 1511 1507 1505 1505 1507 1510 1511 1504 1497 1498 1500 1499 1496 1495 1495 1495 1496 1500 1503 1505 1507 1508 1510 1511 1512 1513 1513 1514 1515 1515 1515 1515 1514 1514 1514 1513 1512 1511 1510 1508 1507 1505
1508 1509 1501 1499 1500 1503 1506 1509 1509 1503 1498 1499 1502 1502 1498 1496 1496 1496 1498 1500 1502 1505 1507 1508 1510 1511 1511 1512 1512 1513 1513 1514 1514 1514 1513 1512 1512 1510 1509 1508 1506 1504 1502 1500
1509 1503 1496 1497 1500 1503 1506 1508 1507 1506 1502 1502 1503 1509 1503 1498 1497 1496 1498 1500 1502 1504 1506 1507 1508 1509 1510 1510 1511 1512 1512 1512 1512 1512 1511 1510 1508 1507 1506 1504 1502 1500 1497 1494
1505 1499 1497 1498 1500 1501 1508 1501 1502 1505 1511 1517 1512 1525 1509 1503 1500 1498 1499 1500 1502 1503 1504 1505 1506 1507 1508 1509 1510 1510 1510 1511 1510 1509 1508 1507 1505 1503 1502 1499 1497 1494 1491 1488
1507 1500 1499 1500 1499 1497 1501 1499 1503 1508 1511 1519 1518 1525 1518 1504 1503 1500 1499 1499 1500 1500 1501 1502 1503 1504 1506 1507 1508 1508 1508 1508 1508 1506 1505 1503 1501 1500 1498 1495 1492 1489 1486 1483
1503 1499 1498 1497 1496 1496 1498 1505 1512 1519 1524 1532 1520 1527 1523 1508 1500 1497 1496 1496 1496 1497 1498 1500 1501 1503 1504 1504 1505 1505 1505 1505 1504 1503 1501 1499 1497 1496 1494 1491 1487 1484 1480 1477
1511 1503 1497 1496 1498 1499 1503 1518 1538 1540 1545 1539 1524 1526 1521 1498 1493 1492 1492 1492 1492 1494 1496 1498 1499 1500 1501 1501 1501 1501 1501 1501 1501 1499 1497 1495 1493 1491 1489 1486 1483 1479 1475 1472
1522 1522 1502 1497 1499 1504 1504 1515 1538 1547 1550 1540 1526 1526 1509 1492 1489 1489 1489 1490 1492 1494 1495 1496 1496 1497 1497 1497 1497 1497 1497 1497 1497 1495 1493 1491 1489 1487 1485 1482 1479 1475 1472 1468
1521 1519 1501 1498 1497 1499 1507 1514 1516 1533 1537 1543 1534 1519 1502 1489 1488 1488 1489 1491 1493 1494 1494 1494 1494 1493 1493 1493 1493 1493 1494 1494 1493 1491 1489 1487 1485 1483 1481 1478 1475 1472 1469 1465
1510 1517 1506 1501 1497 1499 1503 1512 1524 1533 1542 1546 1534 1524 1516 1500 1495 1492 1491 1492 1493 1493 1493 1492 1491 1490 1490 1490 1490 1490 1490 1490 1489 1487 1485 1483 1481 1479 1477 1474 1472 1469 1466 1463
1506 1517 1514 1508 1507 1509 1507 1513 1524 1533 1535 1543 1544 1530 1508 1506 1501 1498 1497 1497 1496 1495 1493 1491 1490 1489 1488 1487 1487 1487 1486 1486 1485 1483 1481 1479 1477 1475 1473 1471 1468 1466 1463 1460
1511 1520 1525 1516 1507 1505 1505 1509 1520 1529 1531 1537 1541 1529 1507 1506 1504 1502 1503 1502 1500 1497 1495 1492 1491 1489 1487 1486 1485 1484 1483 1482 1480 1479 1477 1475 1473 1471 1469 1467 1465 1463 1460 1458
1510 1520 1531 1527 1521 1510 1507 1508 1512 1521 1529 1536 1538 1523 1510 1509 1508 1508 1507 1506 1503 1500 1497 1495 1492 1490 1488 1485 1483 1481 1479 1477 1475 1474 1472 1470 1468 1467 1465 1464 1462 1459 1457 1455
1504 1517 1525 1528 1523 1513 1511 1508 1509 1520 1530 1530 1523 1514 1516 1515 1514 1513 1511 1509 1506 1503 1500 1497 1494 1492 1489 1486 1482 1479 1476 1473 1470 1468 1465 1463 1462 1461 1460 1459 1457 1456 1454 1452
1504 1515 1515 1514 1509 1509 1510 1509 1508 1512 1516 1521 1518 1523 1527 1524 1521 1518 1515 1511 1507 1503 1500 1498 1494 1491 1488 1484 1480 1477 1473 1469 1465 1462 1459 1456 1455 1454 1453 1453 1452 1451 1450 1449
1507 1511 1513 1512 1506 1508 1511 1511 1511 1515 1519 1519 1523 1531 1531 1527 1523 1519 1515 1512 1508 1504 1501 1497 1493 1488 1485 1481 1477 1473 1469 1465 1461 1456 1452 1449 1447 1446 1445 1445 1446 1446 1445 1444
1511 1514 1519 1521 1512 1509 1521 1524 1521 1529 1532 1532 1533 1536 1531 1526 1522 1519 1515 1511 1507 1502 1497 1493 1488 1484 1480 1476 1473 1468 1465 1461 1457 1452 1448 1444 1441 1439 1438 1437 1438 1439 1439 1439
1514 1518 1523 1524 1516 1522 1537 1529 1528 1532 1535 1534 1534 1532 1529 1525 1519 1514 1510 1505 1500 1496 1492 1488 1484 1479 1475 1471 1467 1462 1459 1456 1452 1448 1444 1440 1436 1434 1431 1430 1430 1431 1433 1434
1511 1516 1525 1531 1526 1523 1530 1529 1530 1528 1533 1535 1533 1529 1524 1518 1513 1508 1505 1500 1496 1492 1487 1483 1478 1473 1469 1465 1461 1456 1453 1450 1447 1443 1440 1436 1432 1429 1427 1424 1423 1424 1425 1427
1515 1517 1525 1528 1527 1530 1542 1535 1529 1529 1532 1534 1530 1525 1520 1515 1511 1502 1499 1495 1490 1485 1480 1475 1470 1466 1461 1457 1454 1449 1446 1443 1440 1437 1434 1431 1428 1425 1422 1419 1418 1417 1417 1419
1528 1529 1531 1532 1532 1539 1546 1537 1530 1539 1540 1531 1526 1520 1515 1511 1505 1496 1491 1487 1482 1477 1472 1467 1462 1457 1452 1449 1445 1440 1437 1435 1433 1430 1428 1425 1423 1420 1417 1414 1412 1410 1410 1411
1539 1540 1540 1541 1541 1547 1543 1539 1541 1541 1531 1525 1520 1515 1509 1503 1496 1489 1483 1477 1472 1467 1463 1458 1453 1447 1443 1440 1436 1430 1427 1425 1424 1422 1420 1418 1416 1414 1412 1409 1406 1405 1403 1404
1545 1547 1545 1548 1550 1546 1541 1539 1535 1531 1526 1521 1516 1510 1504 1496 1489 1482 1475 1468 1463 1457 1452 1447 1441 1435 1431 1429 1425 1420 1417 1415 1413 1411 1410 1409 1408 1407 1405 1403 1401 1399 1397 1397
1547 1545 1547 1547 1545 1542 1537 1534 1530 1527 1522 1517 1511 1504 1498 1490 1482 1474 1466 1459 1453 1446 1440 1435 1429 1423 1417 1415 1413 1409 1406 1405 1402 1401 1400 1400 1399 1399 1398 1397 1396 1394 1392 1392
1549 1547 1549 1547 1542 1537 1532 1530 1526 1521 1516 1511 1504 1498 1491 1483 1474 1466 1457 1449 1442 1435 1429 1423 1417 1410 1404 1401 1398 1397 1395 1393 1391 1390 1390 1390 1390 1390 1390 1390 1389 1388 1386 1387
1547 1548 1548 1547 1539 1536 1529 1525 1520 1515 1510 1503 1496 1488 1481 1474 1465 1456 1447 1439 1431 1423 1416 1409 1403 1397 1391 1388 1384 1383 1382 1381 1380 1379 1380 1380 1381 1381 1382 1382 1382 1381 1380 1380